Regional Weather Roundup
Issued by NWS

Home | Current Version | Previous Version | Graphics & Text | Print | Product List | Glossary On
Versions: 1 2 3 4 5 6 7 8 9 10 11 12 13 14 15 16 17 18 19 20 21 22 23 24 25 26 27 28 29 30 31 32 33 34 35 36 37 38 39 40 41 42 43 44 45 46 47 48 49 50
000
ASUS45 KPSR 191510
RWRAZ

ARIZONA HOURLY REGIONAL WEATHER ROUNDUP
NATIONAL WEATHER SERVICE PHOENIX AZ
800 AM MST THU APR 19 2018

NOTE: FAIR INDICATES FEW OR NO CLOUDS BELOW 12,000 FEET WITH NO
SIGNIFICANT WEATHER AND/OR OBSTRUCTIONS TO VISIBILITY.

AZZ001>003-036-191600-
NORTHWEST ARIZONA

CITY           SKY/WX    TMP DP  RH WIND       PRES   REMARKS
BULLHEAD CITY  MOSUNNY   66  25  20 SW20      29.80R
KINGMAN        MOSUNNY   60  18  19 SW15      29.82F
$$

AZZ004>008-015-016-018-191600-
NORTH CENTRAL ARIZONA

CITY           SKY/WX    TMP DP  RH WIND       PRES   REMARKS
GRAND CANYON   PTSUNNY   47   7  19 SE8       29.96F
WILLIAMS       PTSUNNY   50   1  13 S22G33    29.92F
PRESCOTT       MOSUNNY   57   9  14 SE24G31   29.92F
FLAGSTAFF      MOSUNNY   49   7  18 S17G31    29.98F
PAYSON         SUNNY     57   5  12 VRB6      30.01S
PAGE           CLOUDY    53   6  15 NE5       29.92F
$$

AZZ009>014-017-191600-
NORTHEAST ARIZONA

CITY           SKY/WX    TMP DP  RH WIND       PRES   REMARKS
WINSLOW        SUNNY     55   5  13 E16       29.96F
SAINT JOHNS    SUNNY     55   8  15 S5        30.03F
WINDOW ROCK    MOSUNNY   42  -4  14 CALM      30.12F
SHOW LOW       SUNNY     61   5  11 S28       30.03F
$$

AZZ540-542>544-546-548-191600-
GREATER PHOENIX AREA

CITY           SKY/WX    TMP DP  RH WIND       PRES   REMARKS
PHOENIX        MOSUNNY   66  26  22 E6        29.89R
BUCKEYE        SUNNY     64  27  24 SE6       29.90S
GLENDALE       MOSUNNY   63  23  22 CALM      29.92R
DEER VALLEY    SUNNY     66  21  18 SE5       29.91R
SCOTTSDALE     SUNNY     64  25  22 SE6       29.92R
MESA-FALCON    MOSUNNY   66  28  24 W6        29.92R
CHANDLER       SUNNY     61  27  27 CALM      29.91R
$$

AZZ539-553-191600-
SOUTHWEST MARICOPA COUNTY AND PINAL COUNTY

CITY           SKY/WX    TMP DP  RH WIND       PRES   REMARKS
CASA GRANDE    SUNNY     63  20  19 CALM      29.92R
GILA BEND      SUNNY     63  13  14 CALM      29.89R
$$

AZZ503-504-507>509-191600-
SOUTHEAST ARIZONA

CITY           SKY/WX    TMP DP  RH WIND       PRES   REMARKS
TUCSON         PTSUNNY   66  14  13 SE12      29.99R
DAVIS-MONTHAN  PTSUNNY   67  14  13 S7        29.97R
RYAN FIELD     SUNNY     63  19  19 E6        29.98S
NOGALES        MOSUNNY   62  19  19 CALM      30.04S
SIERRA VISTA   CLOUDY    63  12  14 CALM      30.08R
DOUGLAS        PTSUNNY   58  11  15 CALM      30.07R
SAFFORD        SUNNY     64   9  11 SE15      30.01R
$$

AZZ532-191600-
SOUTHWEST ARIZONA

CITY           SKY/WX    TMP DP  RH WIND       PRES   REMARKS
YUMA           MOSUNNY   61  37  41 NW20G28   29.92R DUST
$$

CAZ041-043-047-048-061-525>527-560>570-191600-
SOUTHERN CALIFORNIA

CITY           SKY/WX    TMP DP  RH WIND       PRES   REMARKS
DOWNTOWN L.A.  LGT RAIN  51  45  79 NE3       30.02R
L.A. AIRPORT   PTSUNNY   52  44  74 VRB3      30.03S
SAN DIEGO      PTSUNNY   58  44  60 W8        30.09R
BURBANK        LGT RAIN  50  46  86 E7        30.00F
ONTARIO        PTSUNNY   51  42  71 W9        30.03R
RIVERSIDE      PTSUNNY   51  42  71 CALM      30.03R
PALM SPRINGS   SUNNY     61  31  32 VRB3      29.91R
EL CENTRO NAS  MOSUNNY   60  34  37 W26G39    29.97R BLWGDUST
IMPERIAL       MOSUNNY   60  37  42 W30G45    29.92R HAZE
NEEDLES        MOSUNNY   70  18  13 SW12G17   29.83R
$$

NVZ020-UTZ003-191600-
SOUTHERN NEVADA-UTAH

CITY           SKY/WX    TMP DP  RH WIND       PRES   REMARKS
LAS VEGAS      PTSUNNY   58  22  24 S10G20    29.79R
SALT LAKE CITY CLOUDY    51  23  33 S10       29.86F
$$

NMZ009-TXZ055-191600-
NEW MEXICO-WEST TEXAS

CITY           SKY/WX    TMP DP  RH WIND       PRES   REMARKS
ALBUQUERQUE    MOSUNNY   52  13  21 E26G32    30.22S
EL PASO        SUNNY     63  18  17 E15       30.17S
$$


........................KEY........................
SKY/WX - SKY CONDITION/WEATHER
TMP    - TEMPERATURE IN FAHRENHEIT
DP     - DEW POINT IN FAHRENHEIT
RH     - RELATIVE HUMIDITY IN PERCENT
WIND   - DIRECTION AND SPEED IN MILES PER HOUR (MPH)
VRB    - VARIABLE WIND DIRECTION
PRES   - MEAN SEA LEVEL PRESSURE IN INCHES OF MERCURY
         F - FALLING PRESSURE   R - RISING PRESSURE
         S - STEADY PRESSURE
VSB    - VISIBILITY IN MILES
HX     - HEAT INDEX IN FAHRENHEIT
WCI    - WIND CHILL INDEX IN FAHRENHEIT
TC     - TEMPERATURE IN CELSIUS WHICH IS ALSO KNOWN AS
         TEMPERATURE IN CENTIGRADE
AFB    - AIR FORCE BASE
         LUKE AFB IS LUKE AIR FORCE BASE
         DAVIS-MONTHAN IS DAVIS-MONTHAN AIR FORCE BASE
NAS    - NAVAL AIR STATION
         EL CENTRO NAS IS EL CENTRO NAVAL AIR STATION
N/A    - NOT AVAILABLE




USA.gov is the U.S. government's official web portal to all federal, state and local government web resources and services.